This is the latest recevied weather packets stored in our database for station/object K0VSC-1. If no packets are shown the sender has not sent any weather packets the latest 10 day(s).
| Time | Temp. | Humidity | Pressure | Rain* | Wind** | Luminosity | Snow |
|---|---|---|---|---|---|---|---|
| 1777678695 | 10.56° C | 33% | 1018.7 hPa | 0 mm | - | 62 W/m² | - |
| 1777678395 | 10.56° C | 33% | 1018.7 hPa | 0 mm | - | 63 W/m² | - |
| 1777678095 | 11.11° C | 32% | 1018.6 hPa | 0 mm | - | 79 W/m² | - |
| 1777677795 | 11.11° C | 35% | 1018.7 hPa | 0 mm | - | 207 W/m² | - |
| 1777677495 | 11.11° C | 33% | 1018.7 hPa | 0 mm | - | 214 W/m² | - |
| 1777677195 | 11.11° C | 33% | 1018.6 hPa | 0 mm | - | 81 W/m² | - |
| 1777676895 | 11.67° C | 34% | 1018.6 hPa | 0 mm | - | 81 W/m² | - |
| 1777676595 | 11.67° C | 35% | 1018.6 hPa | 0 mm | - | 264 W/m² | - |
| 1777676295 | 11.11° C | 35% | 1018.6 hPa | 0 mm | - | 392 W/m² | - |
| 1777675995 | 10.56° C | 34% | 1018.7 hPa | 0 mm | - | 420 W/m² | - |
| 1777675695 | 10.56° C | 35% | 1018.7 hPa | 0 mm | - | 114 W/m² | - |
| 1777675395 | 10.56° C | 34% | 1018.7 hPa | 0 mm | - | 114 W/m² | - |
| 1777675095 | 10.56° C | 33% | 1018.7 hPa | 0 mm | - | 109 W/m² | - |
| 1777674795 | 10.56° C | 34% | 1018.7 hPa | 0 mm | - | 100 W/m² | - |
| 1777674496 | 10.56° C | 37% | 1018.7 hPa | 0 mm | - | 218 W/m² | - |
| 1777674196 | 11.11° C | 33% | 1018.8 hPa | 0 mm | - | 109 W/m² | - |
| 1777673896 | 11.11° C | 34% | 1018.8 hPa | 0 mm | - | 151 W/m² | - |
| 1777673595 | 11.11° C | 35% | 1018.8 hPa | 0 mm | - | 626 W/m² | - |
| 1777673295 | 11.11° C | 34% | 1018.9 hPa | 0 mm | - | 656 W/m² | - |
| 1777672995 | 11.11° C | 33% | 1018.7 hPa | 0 mm | - | 668 W/m² | - |
| 1777672695 | 10.56° C | 33% | 1018.7 hPa | 0 mm | - | 329 W/m² | - |
| 1777672395 | 11.11° C | 32% | 1018.6 hPa | 0 mm | - | 708 W/m² | - |
| 1777672095 | 11.11° C | 35% | 1018.7 hPa | 0 mm | - | 269 W/m² | - |
| 1777671795 | 11.11° C | 33% | 1018.8 hPa | 0 mm | - | 729 W/m² | - |
| 1777671495 | 11.11° C | 33% | 1018.7 hPa | 0 mm | - | 717 W/m² | - |
* Rain latest hour (hover to see other rain measurements)
** Current wind speed in m/s (hover to see current wind gust speed)